This is the latest recevied weather packets stored in our database for station/object KE5YIM-13. If no packets are shown the sender has not sent any weather packets the latest 10 day(s).
| Time | Temp. | Humidity | Pressure | Rain* | Wind** | Luminosity | Snow |
|---|---|---|---|---|---|---|---|
| 1777499292 | 13.33° C | 73% | 1012.8 hPa | 0 mm | - | 121 W/m² | - |
| 1777498989 | 13.33° C | 73% | 1012.7 hPa | 0 mm | - | 124 W/m² | - |
| 1777498685 | 13.89° C | 72% | 1012.9 hPa | 0 mm | - | 122 W/m² | - |
| 1777498381 | 13.89° C | 73% | 1013.3 hPa | 0 mm | - | 126 W/m² | - |
| 1777498079 | 13.89° C | 72% | 1013.4 hPa | 0 mm | - | 149 W/m² | - |
| 1777497776 | 13.89° C | 71% | 1013.6 hPa | 0 mm | - | 168 W/m² | - |
| 1777497473 | 13.89° C | 71% | 1013.3 hPa | 0 mm | - | 181 W/m² | - |
| 1777497169 | 13.89° C | 71% | 1013.3 hPa | 0 mm | - | 183 W/m² | - |
| 1777496866 | 13.89° C | 72% | 1013.4 hPa | 0 mm | - | 166 W/m² | - |
| 1777496563 | 13.89° C | 72% | 1013.5 hPa | 0 mm | - | 156 W/m² | - |
| 1777496258 | 13.89° C | 72% | 1013.6 hPa | 0 mm | - | 175 W/m² | - |
| 1777495955 | 13.89° C | 71% | 1013.3 hPa | 0 mm | - | 209 W/m² | - |
| 1777495651 | 13.89° C | 73% | 1013.4 hPa | 0 mm | - | 188 W/m² | - |
| 1777495347 | 13.89° C | 72% | 1013.5 hPa | 0 mm | - | 181 W/m² | - |
| 1777495044 | 13.89° C | 72% | 1013.9 hPa | 0 mm | - | 211 W/m² | - |
| 1777494741 | 13.89° C | 71% | 1013.8 hPa | 0 mm | - | 220 W/m² | - |
| 1777494439 | 13.89° C | 71% | 1014.1 hPa | 0 mm | - | 202 W/m² | - |
| 1777494135 | 13.89° C | 71% | 1014.2 hPa | 0 mm | - | 223 W/m² | - |
| 1777493832 | 13.89° C | 72% | 1014.1 hPa | 0 mm | - | 252 W/m² | - |
| 1777493531 | 13.89° C | 71% | 1014.2 hPa | 0 mm | - | 262 W/m² | - |
| 1777493228 | 13.89° C | 71% | 1014.2 hPa | 0 mm | - | 230 W/m² | - |
| 1777492924 | 14.44° C | 70% | 1014.3 hPa | 0 mm | - | 237 W/m² | - |
| 1777492621 | 14.44° C | 69% | 1014.5 hPa | 0 mm | - | 259 W/m² | - |
| 1777492316 | 15° C | 70% | 1014.4 hPa | 0 mm | - | 287 W/m² | - |
| 1777492013 | 15° C | 68% | 1014.7 hPa | 0 mm | - | 296 W/m² | - |
* Rain latest hour (hover to see other rain measurements)
** Current wind speed in m/s (hover to see current wind gust speed)